Theta_e
312 313 314 315 315 316 317 317 316 316 314 312 310 306 304 303 304 304 302 302 308 310 307 304 303 303 302 304 310 315 319 321 322 323 324 327 329 329 329 329 327 329 332 334 335 333 332 333 333 334 334 332 330 329 328 327 326 327 331 332 332 332 332 332 333 333 333 330 326 326 325 325 326 324 323 324 324 324 325 323 322 326 325 325 329 330 330 330
311 312 313 314 315 315 316 317 316 316 315 313 311 308 306 305 305 306 305 301 304 308 307 305 304 305 303 303 307 312 317 319 321 322 321 323 329 329 329 329 328 329 331 333 335 334 334 333 333 334 334 333 331 329 328 327 327 327 330 332 331 331 331 331 331 331 332 332 329 327 326 326 325 325 323 322 324 323 324 324 323 325 327 325 326 327 326 325
309 310 312 313 314 314 315 316 316 316 315 315 313 309 306 306 305 307 307 303 301 303 305 306 306 305 304 304 306 310 314 318 321 322 319 321 326 329 329 329 328 328 331 333 334 334 335 334 334 334 333 334 333 329 327 327 327 327 329 331 331 330 330 330 331 331 332 332 331 329 326 325 325 325 324 322 323 323 323 324 323 324 327 326 324 323 323 323
309 309 310 311 313 314 314 315 316 316 316 315 314 312 308 306 306 306 307 305 304 305 306 308 309 307 304 304 307 310 313 318 319 316 316 319 323 327 329 329 328 328 330 332 333 334 335 335 335 333 332 333 334 331 328 327 327 327 328 329 330 329 330 330 330 330 331 331 331 329 325 325 326 324 324 323 322 323 323 324 324 323 325 326 325 323 321 321
308 309 310 310 311 313 314 314 315 316 316 315 314 313 310 309 308 307 306 306 308 308 307 308 310 309 306 305 307 310 314 316 318 314 312 315 318 325 327 328 329 328 330 331 332 334 335 335 334 333 332 333 334 333 331 328 327 327 327 328 328 329 329 330 330 329 329 329 329 329 326 325 325 324 324 323 323 324 324 324 324 323 324 325 325 325 323 321
308 308 309 310 310 311 313 313 314 316 316 316 315 313 311 310 309 308 307 308 309 308 308 309 310 310 307 305 306 311 314 315 320 322 317 314 313 318 325 327 328 329 330 330 331 334 335 335 334 333 332 332 333 333 333 330 327 328 327 328 328 328 328 329 329 329 329 328 328 329 328 327 326 324 324 324 323 324 325 325 324 323 324 323 323 324 323 322
307 308 308 309 309 309 312 312 313 314 315 316 316 313 312 310 309 308 308 308 309 308 308 308 309 309 308 306 306 311 316 316 321 325 322 322 316 312 321 326 328 329 330 330 332 334 335 334 333 333 332 332 332 332 333 331 329 328 328 328 328 328 328 329 329 328 328 328 328 329 328 327 326 325 324 324 324 324 325 325 325 324 323 324 325 324 323 321
306 307 308 309 309 309 310 312 312 313 314 316 316 314 312 310 309 309 308 308 309 309 308 308 308 308 308 307 308 314 316 313 317 323 322 325 323 316 317 322 327 328 330 330 332 334 333 333 333 333 332 332 332 331 332 333 333 330 328 328 328 328 328 329 328 327 327 327 328 328 326 325 326 326 326 326 326 326 325 325 326 324 323 326 328 326 323 322
306 307 308 308 308 309 310 310 311 313 314 315 316 315 312 310 309 309 308 307 308 309 309 308 307 308 308 308 311 315 313 308 311 319 322 324 325 323 320 320 325 328 330 330 332 333 333 333 333 332 332 332 331 330 330 333 333 329 328 330 328 328 328 329 329 327 327 326 326 327 325 325 326 327 325 326 327 326 326 325 326 325 324 326 328 327 324 323
305 306 307 308 308 308 309 310 310 312 313 314 315 315 313 310 309 309 308 307 308 308 309 309 307 308 308 308 312 313 309 308 311 313 320 325 326 325 323 322 323 327 330 330 332 333 333 333 333 332 332 330 329 328 328 329 329 326 326 328 326 326 327 328 329 328 328 326 326 326 325 325 327 326 326 327 327 327 327 326 326 325 324 325 326 326 324 323
304 305 306 307 307 308 309 309 309 311 312 313 315 315 313 310 309 309 307 307 307 307 308 308 308 309 309 309 312 313 310 311 313 313 316 321 325 326 324 323 324 326 329 329 331 333 332 333 332 332 331 329 329 328 328 328 326 325 325 325 325 325 326 327 328 329 327 326 326 325 325 325 326 325 325 327 327 326 327 327 327 325 324 324 325 325 324 323
304 304 305 306 307 307 308 309 309 310 311 312 313 315 314 311 309 308 307 307 306 306 307 308 308 309 310 311 311 311 313 316 316 317 318 317 321 324 325 325 325 326 329 330 330 331 332 332 332 331 330 328 328 328 328 328 327 325 325 325 325 325 326 327 327 329 327 326 326 324 324 325 325 325 324 325 326 326 326 326 327 325 324 325 324 325 325 323
304 304 305 306 306 307 308 309 309 309 310 311 312 314 314 311 309 308 307 307 306 306 307 307 308 308 311 313 311 308 313 319 319 319 320 318 317 320 322 325 327 327 328 330 330 330 330 331 331 330 329 328 327 328 327 326 326 326 326 326 326 327 327 327 327 328 328 327 326 325 325 326 325 326 326 325 325 325 325 325 325 326 324 324 324 325 325 325
304 304 304 305 305 306 308 309 309 309 310 311 312 314 313 312 310 308 307 306 306 306 306 307 307 309 312 312 310 309 310 315 317 318 320 318 318 320 321 322 326 329 329 330 331 330 330 331 331 329 328 327 326 327 326 325 326 326 328 327 327 329 328 327 328 328 328 328 326 326 325 327 326 327 327 327 326 325 325 325 325 325 325 324 324 324 325 325
304 304 304 305 305 305 307 309 309 309 310 311 312 313 313 312 311 309 307 306 306 306 306 307 307 310 312 311 310 310 310 311 312 316 320 319 320 322 322 321 323 328 330 330 330 330 330 329 328 328 326 326 326 327 327 327 326 325 329 330 328 329 329 328 328 329 329 328 326 326 325 326 327 327 328 328 328 326 324 325 325 325 325 325 324 323 324 325
304 304 304 305 305 305 306 308 309 309 309 310 311 313 313 312 311 310 307 306 306 305 306 308 309 310 311 311 311 310 310 311 310 314 320 321 322 322 322 322 322 325 328 329 329 328 328 327 326 325 324 325 328 330 330 329 328 326 328 331 329 329 330 328 329 329 329 329 327 325 325 327 327 327 328 328 329 327 325 325 325 325 326 326 325 324 323 324
304 305 304 304 304 305 305 307 309 308 309 310 311 312 313 311 311 310 307 306 306 306 307 308 309 310 311 311 312 311 310 311 309 312 318 321 322 323 322 323 323 324 326 327 328 327 326 326 325 325 324 325 328 331 332 332 331 328 327 329 329 329 330 329 330 328 328 330 329 325 324 326 327 327 327 328 328 328 325 325 326 326 326 327 326 325 324 324
304 304 304 304 304 304 305 307 308 308 309 310 310 312 312 311 311 310 308 307 307 307 308 309 310 310 311 310 311 312 311 311 310 310 313 318 321 323 324 324 323 324 325 325 325 326 326 325 324 325 326 325 326 330 332 332 330 329 329 329 329 328 328 329 328 329 330 330 329 326 324 324 325 326 326 327 327 328 326 325 326 327 326 327 327 325 324 324
304 304 304 304 304 304 305 307 308 308 309 309 310 311 311 311 312 311 310 309 309 310 310 310 310 310 310 310 309 311 313 312 312 310 309 314 318 321 324 325 324 324 324 324 324 324 325 324 324 326 327 326 326 328 328 328 327 328 329 329 329 329 329 328 327 330 332 331 329 327 326 327 327 326 325 326 326 327 328 327 326 327 327 327 328 327 326 325
304 304 304 304 304 304 305 306 307 308 309 309 310 312 312 312 311 311 311 310 309 309 309 309 309 309 311 314 311 310 314 314 312 311 309 309 313 319 323 323 324 324 324 325 325 324 324 325 325 325 326 326 325 326 326 326 326 327 328 328 329 328 328 327 328 331 331 329 329 327 328 328 328 328 326 326 326 326 327 327 327 327 327 328 328 328 328 327
304 304 304 304 304 304 305 306 307 308 308 309 311 312 312 312 310 310 311 310 308 307 308 309 308 308 311 315 314 310 312 315 313 312 311 308 311 318 321 321 323 325 324 325 325 324 324 326 325 324 323 324 324 324 325 326 326 326 326 328 328 328 328 327 329 331 329 328 329 328 329 329 327 328 327 327 327 327 326 327 327 327 327 328 328 328 328 328
304 304 304 303 303 304 305 305 306 307 307 309 311 312 312 311 309 309 309 309 309 308 309 309 309 309 310 313 314 311 312 316 314 314 312 311 313 317 320 321 323 325 324 325 325 325 325 325 324 324 323 323 324 324 324 326 326 326 327 328 328 327 327 327 328 329 328 329 330 330 330 329 327 327 327 327 327 328 328 327 328 328 327 327 328 328 328 328
303 303 304 303 303 304 305 305 306 307 308 309 311 311 311 310 308 307 307 308 308 308 309 310 311 310 310 312 314 313 314 316 315 316 314 313 316 317 319 322 323 324 325 325 326 326 327 325 323 323 323 323 324 324 325 326 326 327 327 327 327 326 327 328 328 328 328 329 330 330 330 328 327 327 327 327 327 327 328 328 328 328 328 328 327 327 328 328
303 303 304 304 304 304 305 305 306 306 309 311 310 310 310 309 307 306 306 307 308 308 309 310 311 311 310 311 313 313 315 314 315 317 315 314 317 315 316 320 321 323 324 324 325 326 326 324 323 323 323 323 324 324 325 326 326 327 327 327 326 325 325 326 326 326 327 328 328 329 330 329 327 327 327 326 326 326 327 328 328 329 329 328 328 327 327 327
303 303 303 303 304 304 305 306 306 307 309 311 310 310 310 309 307 306 306 307 308 308 308 309 311 311 311 310 311 313 314 314 314 316 316 315 316 315 315 317 320 321 322 322 324 325 325 323 323 324 323 323 324 324 325 326 326 326 326 326 325 325 325 325 326 326 327 328 327 329 332 330 327 328 328 326 326 326 327 327 327 328 328 329 329 328 327 327
303 303 303 303 304 304 305 306 306 307 308 309 310 310 310 309 307 305 306 307 308 308 308 309 309 310 311 311 311 311 312 313 312 314 316 315 315 316 314 315 319 320 320 321 323 324 323 323 323 323 324 324 324 324 324 325 326 326 326 325 325 325 325 325 326 327 328 328 327 329 331 330 327 327 328 327 328 327 327 327 327 327 328 328 329 328 328 328
302 303 303 303 304 304 305 306 306 307 308 309 310 310 309 308 305 305 306 307 307 308 308 308 309 309 310 312 311 310 311 312 312 314 316 315 315 316 315 314 317 319 319 321 323 323 322 323 324 324 324 324 324 324 324 324 325 325 325 325 325 325 325 326 325 326 327 326 326 328 330 331 330 328 327 327 328 328 328 328 328 327 328 328 328 328 329 328
302 302 303 303 304 304 305 306 306 307 308 309 310 310 309 307 305 305 307 306 307 309 308 308 309 308 310 312 311 309 310 311 312 314 315 316 316 316 316 315 315 317 319 320 322 323 322 322 323 323 323 324 323 323 323 323 324 325 325 326 325 324 324 325 325 325 325 326 327 326 328 332 330 327 327 328 327 328 328 328 328 327 328 329 328 328 328 328
302 302 303 303 304 304 304 305 306 307 307 309 310 310 308 306 305 306 307 306 307 308 308 309 308 308 310 312 311 309 309 311 312 313 314 316 317 316 316 317 316 316 318 320 321 322 322 322 322 322 323 324 323 322 322 323 323 324 325 325 324 327 327 326 326 326 325 327 327 325 326 330 329 325 326 328 327 327 327 326 327 327 327 329 329 328 329 328
302 302 303 303 304 304 304 305 306 307 307 309 310 308 307 306 306 307 306 306 307 307 308 308 307 308 310 311 312 310 310 310 312 315 316 317 318 317 316 317 317 317 318 319 320 320 321 321 321 322 323 323 322 321 322 322 323 323 325 325 326 329 330 329 327 325 326 328 327 324 324 328 329 326 324 326 326 325 326 326 327 327 326 328 329 329 329 328
302 302 303 303 304 304 304 305 306 307 308 309 308 307 306 306 306 306 305 306 307 307 309 308 307 309 310 311 312 311 310 311 312 316 316 316 317 317 316 317 317 318 319 320 319 319 320 320 321 321 321 321 322 323 322 322 323 323 325 326 326 327 328 328 326 325 327 328 327 325 323 326 328 327 324 325 325 324 325 326 328 328 326 327 328 328 329 329
302 302 303 303 304 304 304 305 306 307 308 309 307 305 305 305 305 305 306 306 307 308 309 308 308 309 310 310 311 310 310 310 312 315 315 315 316 317 316 316 317 317 318 318 318 319 319 320 320 321 320 320 322 323 323 323 324 323 325 327 325 325 326 325 325 326 327 327 328 327 326 326 327 325 324 325 324 324 324 324 326 327 326 327 328 328 328 328
302 302 303 303 303 304 304 305 306 307 308 308 305 304 305 305 305 306 306 306 307 308 309 308 308 309 309 309 310 310 310 310 311 314 315 314 315 315 315 315 316 316 317 317 317 318 319 319 319 321 321 320 321 323 323 324 323 322 324 325 324 324 324 323 323 324 325 324 326 327 326 328 327 324 324 324 323 324 323 323 325 325 326 327 328 328 328 327
302 302 303 303 303 304 305 305 307 308 307 306 304 304 305 305 306 306 305 306 308 308 309 309 308 309 309 309 309 310 310 309 309 312 314 314 314 314 314 315 315 316 317 317 316 317 318 318 319 320 321 321 320 321 322 323 322 321 322 323 323 322 324 324 323 323 324 325 326 326 326 329 328 325 325 324 323 323 323 324 324 324 326 327 327 327 327 327
302 302 303 303 303 304 305 305 307 309 307 304 304 304 305 305 306 305 304 306 309 309 309 309 309 309 310 309 309 310 310 309 309 310 313 314 314 314 314 314 315 315 317 317 316 316 316 317 319 320 319 320 320 320 320 322 323 322 322 323 323 322 322 324 324 325 326 327 327 327 327 329 326 323 325 325 324 324 323 323 323 323 324 325 326 326 326 327
302 302 303 303 303 304 305 305 306 308 305 303 304 305 305 306 306 305 304 307 310 310 309 310 309 309 310 309 309 310 310 310 310 309 310 312 313 313 313 314 315 315 316 316 316 316 315 316 319 320 319 319 320 320 319 321 323 323 323 323 323 321 321 323 323 323 324 324 325 325 326 328 327 325 324 324 325 326 326 324 323 323 323 323 324 325 326 326
303 302 303 304 304 304 304 305 306 306 304 304 305 305 305 306 306 305 305 308 310 310 309 310 310 310 310 309 308 309 310 310 310 309 309 310 311 312 313 313 315 315 315 315 316 317 318 318 320 321 320 319 318 319 319 319 321 323 323 322 321 321 321 322 323 322 322 322 323 322 323 328 330 329 326 325 326 327 327 326 325 324 323 324 324 325 326 326
303 303 303 304 304 304 304 306 306 305 303 304 306 306 306 306 305 304 305 308 310 310 309 309 310 309 310 310 309 309 309 310 310 309 309 310 310 311 312 312 314 315 315 315 315 318 320 320 320 321 320 319 318 320 321 320 318 322 323 321 321 323 322 322 322 323 323 322 322 321 321 324 327 327 325 326 327 327 327 326 326 326 324 324 325 325 326 326
303 303 304 304 304 304 305 306 305 303 303 305 307 306 305 305 305 304 306 309 310 310 309 310 309 309 310 310 309 309 309 309 310 310 309 309 309 310 310 311 313 314 314 315 315 317 319 318 319 321 321 320 320 321 321 321 319 321 323 322 321 322 323 322 322 322 322 322 323 323 322 322 324 322 322 324 325 326 327 326 326 326 325 324 325 326 326 326
303 303 304 305 304 304 305 306 304 302 304 306 307 306 305 305 305 304 306 309 310 309 309 310 309 309 310 310 309 309 309 309 309 310 309 309 309 310 310 309 312 313 314 315 314 316 318 317 318 321 322 322 322 321 320 320 320 321 322 322 322 322 324 324 322 321 321 322 322 323 323 323 323 322 322 323 324 325 327 327 327 326 324 325 326 326 326 326
303 304 305 305 305 306 306 304 302 302 304 306 306 305 304 304 304 305 306 308 309 309 310 310 309 309 310 310 310 310 310 309 309 309 309 309 309 310 310 309 310 312 314 315 315 314 316 316 317 319 321 322 321 320 319 320 320 320 320 321 321 322 324 324 323 322 322 322 321 322 322 323 323 324 323 323 324 325 325 327 327 325 324 325 325 325 325 325
304 304 305 305 305 306 305 303 302 303 305 306 304 303 304 305 305 305 306 308 309 309 309 310 310 309 310 311 311 311 311 310 309 309 309 309 308 310 311 309 309 310 313 315 315 314 314 316 316 316 318 320 321 321 320 319 320 320 319 319 320 321 322 322 322 322 323 323 322 323 323 323 322 325 326 326 326 324 324 325 326 324 324 325 325 325 325 325
304 304 306 305 305 306 304 303 303 304 305 304 303 303 304 306 306 306 307 308 308 309 309 310 310 310 310 311 311 311 311 310 310 310 310 310 309 309 310 310 309 310 312 314 315 315 314 316 316 315 316 317 319 320 319 317 318 320 320 319 319 320 320 321 321 320 321 322 323 324 324 323 321 325 328 328 325 323 323 324 325 324 324 325 325 325 326 326
303 304 306 306 306 305 304 304 304 304 304 303 303 304 304 305 307 306 307 309 309 308 308 309 310 310 310 311 312 313 313 311 311 311 310 311 310 309 310 310 310 310 311 313 315 315 315 315 315 315 316 316 317 318 317 316 317 318 319 320 320 320 320 321 321 320 320 321 323 324 324 323 322 324 326 325 324 324 325 324 324 325 325 325 326 326 327 327
303 305 306 306 306 305 304 304 304 304 304 304 304 304 304 305 306 306 307 309 308 307 307 308 310 311 310 311 313 313 313 312 311 311 311 311 311 310 310 310 310 310 310 312 314 314 314 315 314 314 315 315 315 317 317 317 317 318 319 319 320 320 321 321 321 321 321 322 323 324 323 322 322 324 323 322 322 324 324 323 323 325 325 326 326 327 327 327
304 305 305 304 304 304 303 302 303 304 304 304 305 304 304 305 305 304 306 308 308 307 307 308 309 310 310 311 312 312 312 312 312 312 312 312 312 312 312 311 311 311 310 312 314 314 314 315 314 313 313 312 314 319 321 321 321 321 320 319 319 320 321 321 322 322 322 323 323 323 323 323 323 323 322 323 323 323 324 325 323 323 324 325 325 325 324 323
304 304 303 302 302 302 302 302 303 304 304 305 305 304 304 305 305 305 306 308 307 308 310 309 308 309 310 310 310 310 311 311 311 312 312 312 312 312 312 312 313 313 312 312 313 314 315 315 314 314 313 312 312 316 321 324 324 322 320 319 319 320 321 322 323 322 322 323 323 323 323 324 323 322 322 323 323 324 325 325 322 322 324 323 323 323 322 321
303 302 301 302 303 303 303 303 304 304 304 305 305 305 305 305 305 305 305 307 307 308 310 310 308 308 309 309 308 309 309 310 310 310 310 310 311 311 311 311 313 313 313 313 313 313 314 314 315 315 315 313 312 313 316 320 322 322 321 321 320 320 321 321 322 322 322 323 323 322 323 324 322 321 321 321 323 323 323 323 322 322 323 323 322 322 321 321
302 301 301 302 303 303 304 304 304 304 305 305 305 305 305 305 305 305 305 307 308 307 308 309 309 308 309 308 307 308 308 308 308 308 308 309 310 310 309 310 311 312 313 313 313 312 313 314 315 315 315 315 314 314 314 315 316 317 319 319 319 319 318 319 319 319 320 322 322 322 324 323 322 322 322 321 322 322 321 321 321 321 322 322 321 321 321 320
301 302 302 302 302 303 303 303 304 304 304 305 305 305 304 304 305 305 305 306 307 307 306 307 308 308 309 308 307 307 307 307 308 308 308 308 309 310 309 309 310 311 312 314 313 310 311 314 314 314 314 314 314 315 315 315 315 315 315 316 317 317 316 316 316 315 316 317 319 320 321 322 321 321 322 321 321 322 321 320 320 320 321 321 320 320 320 319
301 302 302 302 303 303 303 304 304 304 304 304 304 305 304 305 305 305 305 305 306 306 305 306 308 308 308 309 308 308 308 307 309 309 308 307 308 309 309 309 310 311 312 315 315 311 311 313 313 314 314 314 314 315 316 316 316 316 315 315 315 317 317 316 316 316 316 316 316 317 318 320 321 321 321 321 321 322 322 320 319 319 320 319 319 320 319 319
301 301 302 303 304 303 304 304 304 304 304 304 304 304 305 305 305 305 305 305 305 306 305 305 307 307 307 308 308 307 308 307 307 308 307 307 307 307 308 308 309 310 312 316 315 313 311 312 313 313 313 314 314 314 315 316 316 317 317 315 315 316 317 316 316 317 317 317 317 318 318 320 321 322 323 322 321 322 322 321 320 320 320 319 319 319 319 319
Wind_Speed
36 35 35 35 36 38 36 32 31 29 27 25 23 22 22 23 22 22 23 22 19 19 19 19 21 22 25 24 22 22 21 21 24 30 36 38 33 28 25 23 23 24 23 19 10 8 10 10 10 10 10 11 9 10 10 8 9 7 2 3 5 5 5 5 5 6 3 1 5 8 7 4 5 8 5 3 4 4 4 6 7 6 6 8 6 5 7 6
37 35 35 35 36 38 37 34 33 31 29 27 25 24 23 23 23 22 22 22 21 20 17 17 18 19 22 22 22 21 20 21 21 30 42 40 32 29 27 26 24 23 22 17 11 10 11 11 9 11 13 12 10 10 10 9 11 8 3 3 6 5 7 9 9 8 6 2 3 7 6 4 3 10 8 4 6 9 6 6 10 9 10 11 10 10 10 7
38 37 36 35 35 37 38 37 35 33 31 28 26 26 25 24 23 22 22 21 21 18 15 15 16 18 19 21 20 19 19 18 22 36 43 39 35 32 29 28 26 24 22 18 14 10 13 15 12 10 13 13 12 10 9 10 10 10 7 4 6 7 9 14 16 12 8 6 5 1 6 3 3 8 8 4 5 9 9 8 11 13 15 15 14 14 14 12
38 38 38 37 36 36 37 39 37 35 33 31 28 26 26 25 24 23 22 20 18 16 16 16 17 17 18 19 18 17 14 12 25 41 42 39 40 36 33 30 28 26 23 20 16 13 14 17 14 12 14 12 12 12 10 10 9 9 9 5 8 10 9 14 17 14 10 5 6 3 5 3 4 6 7 5 3 5 9 13 15 16 17 18 17 16 16 15
38 38 38 38 37 36 36 38 39 37 34 32 31 28 27 25 24 24 22 19 17 18 18 18 18 17 17 18 18 15 9 4 14 26 33 39 40 38 37 33 28 27 25 21 18 17 17 17 14 13 15 10 10 11 11 14 13 7 9 10 14 15 9 12 14 8 6 1 2 4 2 4 5 7 8 7 5 4 4 6 13 17 17 19 18 16 16 17
38 38 38 39 38 37 36 36 39 38 35 33 32 29 28 26 26 24 22 20 18 20 19 19 19 16 16 17 17 16 13 6 4 5 16 29 36 40 39 35 30 27 25 22 18 17 18 18 14 12 13 10 9 9 11 17 15 7 8 13 18 18 13 15 13 4 5 6 3 6 6 8 6 7 10 11 11 10 6 6 4 9 11 16 19 17 17 17
38 38 38 38 38 38 37 35 38 40 39 37 33 31 29 28 27 25 24 22 20 21 19 20 19 16 16 15 18 18 21 21 4 9 1 10 24 36 38 37 33 27 24 22 21 18 18 18 16 14 11 8 9 11 14 17 16 10 8 11 17 19 16 19 17 7 6 6 7 8 7 7 6 5 9 13 15 16 14 12 7 4 4 10 17 19 16 15
38 38 38 38 39 39 37 36 36 39 41 39 34 32 30 28 28 27 26 24 23 21 20 21 19 18 16 16 19 16 26 39 23 1 10 5 13 24 33 38 35 30 28 25 23 21 19 19 18 15 10 7 8 10 11 12 14 14 9 10 15 18 18 20 18 11 7 7 9 11 8 8 8 8 10 12 13 13 14 15 14 11 7 7 14 17 15 14
38 38 38 38 39 39 38 37 35 37 41 39 35 33 31 29 28 28 27 26 24 22 21 21 19 19 16 18 18 13 31 45 35 18 8 8 11 21 28 37 38 33 29 27 25 23 21 20 21 16 8 8 8 7 3 4 7 8 9 13 14 16 20 20 17 13 9 8 10 11 10 12 14 12 11 15 16 14 14 13 15 15 12 11 13 15 16 17
40 39 39 39 39 38 39 38 37 37 40 41 39 35 31 30 30 29 28 27 25 23 22 20 20 20 18 21 16 13 31 35 32 31 12 4 6 18 26 32 38 36 31 29 26 26 25 21 22 19 9 7 8 4 1 1 1 6 12 16 18 18 21 22 20 18 14 11 13 12 9 13 16 10 7 12 16 17 19 18 15 15 15 16 16 17 17 18
41 40 40 39 39 39 39 38 38 36 39 42 41 36 33 32 31 30 29 27 26 24 22 20 20 21 20 23 19 17 23 20 24 29 20 12 9 12 22 27 34 37 34 31 29 29 26 20 21 20 9 5 7 5 7 8 3 7 13 13 16 19 19 19 19 19 13 7 13 13 10 13 12 10 11 13 12 12 15 18 19 17 15 17 18 18 18 18
41 41 41 40 39 39 39 38 38 37 38 41 42 38 34 33 31 30 30 27 26 24 22 21 20 21 21 22 28 28 15 8 17 19 18 23 19 15 17 21 27 33 33 30 29 29 26 20 20 21 11 6 7 1 10 14 9 8 10 10 11 14 15 16 16 18 12 7 11 9 8 12 9 13 18 16 15 14 12 14 17 18 17 17 18 19 20 21
40 41 41 41 40 40 40 38 38 37 37 39 42 41 36 34 33 31 30 28 26 25 23 21 20 21 19 21 34 35 17 7 11 14 15 20 23 22 19 20 25 28 29 28 27 26 25 23 21 22 15 9 8 5 2 5 7 7 5 5 8 9 12 14 14 17 13 10 14 8 6 9 8 17 25 19 20 20 18 19 19 18 18 19 20 21 22 23
39 41 42 42 41 41 41 38 38 38 37 37 41 42 37 35 34 32 31 28 26 25 23 21 21 21 20 25 31 30 25 18 13 11 15 18 21 22 20 22 26 28 31 29 26 24 24 25 24 23 15 8 9 8 5 5 4 3 1 3 4 6 9 9 11 15 12 12 17 12 7 9 5 13 22 21 23 24 24 26 24 22 21 20 21 22 23 24
40 41 42 42 42 43 42 40 38 38 38 37 40 42 39 36 35 33 31 28 26 24 23 22 23 19 17 24 25 24 27 28 25 16 13 20 21 21 22 23 23 26 30 30 28 25 23 25 23 18 11 9 9 7 4 2 2 3 2 4 4 8 9 8 10 13 11 11 20 14 6 7 7 12 18 20 23 26 27 26 24 24 23 22 21 23 24 25
40 41 42 42 42 42 42 41 39 38 38 37 39 42 40 37 34 33 31 29 26 23 23 23 25 21 11 14 19 24 26 28 32 22 14 19 20 20 23 22 20 21 24 27 27 23 21 22 18 14 11 9 7 5 4 3 3 3 5 6 6 8 9 7 11 15 14 9 15 15 6 3 4 11 18 21 24 25 25 23 22 24 25 24 22 22 24 25
40 41 41 41 41 41 42 41 40 39 39 36 38 41 40 38 34 33 31 28 25 25 27 24 25 21 11 11 13 20 28 29 31 27 20 18 16 18 21 22 22 21 20 21 22 20 20 21 14 9 10 6 4 5 5 6 6 6 6 7 8 9 8 6 8 12 14 12 10 12 10 8 6 12 19 22 23 19 20 21 22 22 23 24 23 22 24 25
40 41 41 41 41 41 42 42 40 39 38 36 37 40 41 38 33 31 30 30 28 26 24 22 22 16 12 22 23 18 25 29 28 29 29 21 13 17 20 21 21 19 16 12 15 21 20 17 11 6 6 6 6 7 7 10 10 9 8 6 7 9 10 8 7 5 4 10 12 11 11 11 9 13 20 25 25 19 16 18 19 19 20 21 22 23 24 24
39 40 40 41 40 41 42 42 41 40 39 37 37 41 41 37 32 31 32 34 31 22 16 22 27 14 3 20 31 20 15 21 25 28 33 30 19 16 18 18 20 21 16 9 11 19 16 10 8 6 7 9 11 12 12 12 10 10 10 8 7 8 8 8 8 4 1 4 9 9 11 11 10 11 15 21 25 23 20 19 18 19 18 19 20 22 23 24
38 38 40 41 40 40 41 43 42 41 41 39 40 42 38 32 21 19 31 36 37 33 23 31 42 24 2 2 19 21 13 13 22 26 31 36 27 19 16 15 19 21 15 9 9 17 16 8 6 9 11 13 16 16 15 13 10 10 10 9 9 8 8 8 6 3 4 2 7 9 10 11 10 9 12 19 21 21 22 21 21 21 21 21 21 22 23 23
38 38 40 41 40 40 42 44 43 43 42 41 47 44 35 32 17 14 33 33 36 40 25 26 43 33 4 8 5 22 20 12 17 22 25 32 28 18 15 15 15 12 13 13 10 15 17 10 9 14 14 15 15 16 15 13 13 13 10 8 9 9 8 8 5 3 5 4 6 7 10 11 11 10 12 17 16 16 20 21 22 23 24 25 26 26 27 26
36 37 39 41 41 41 42 43 43 43 42 43 51 45 35 40 30 28 36 21 25 37 23 19 33 33 14 4 3 20 23 14 15 21 22 28 28 19 14 14 13 8 12 15 8 8 11 9 13 17 16 14 13 15 15 14 15 12 8 8 9 8 6 7 7 4 4 3 4 5 9 12 12 12 13 17 17 17 21 23 23 25 25 27 28 28 29 29
36 37 38 40 40 41 42 43 43 43 44 47 52 47 40 42 35 32 31 12 14 31 27 21 26 33 28 9 6 18 20 14 15 22 27 29 28 25 17 11 12 12 13 14 8 6 7 11 19 19 17 16 14 15 15 13 12 9 8 8 8 8 6 5 5 5 4 4 5 6 9 10 10 12 13 19 25 24 24 26 27 29 27 27 29 29 29 29
36 36 38 39 41 42 41 42 42 42 46 49 51 50 46 44 35 31 27 9 6 21 29 25 21 28 33 18 8 13 14 13 15 21 30 31 27 25 19 12 11 11 11 15 15 13 9 9 17 17 15 17 16 15 15 11 9 10 12 11 10 10 10 7 4 4 5 5 6 6 9 10 9 11 10 15 22 23 25 27 28 30 28 27 28 29 30 30
35 36 37 38 40 42 40 41 42 43 45 48 53 52 47 45 38 32 24 7 3 14 23 23 16 19 27 23 14 11 9 11 14 21 30 33 28 20 16 15 12 9 12 17 16 14 11 9 13 15 14 16 16 14 15 12 8 11 13 13 13 11 11 10 6 3 4 6 6 4 7 10 8 11 11 10 13 18 22 23 25 27 28 30 30 29 30 32
35 36 37 38 40 40 39 38 40 42 43 49 55 51 47 47 39 31 18 2 2 10 14 19 16 15 20 21 20 15 5 7 12 18 27 33 30 20 13 12 10 9 12 13 9 7 8 9 12 15 15 15 16 14 15 14 9 9 10 13 15 14 11 9 7 5 4 5 4 6 7 10 7 9 10 9 11 16 18 17 21 26 28 31 33 33 33 34
35 36 36 38 40 40 39 38 38 41 42 48 52 50 50 48 39 29 13 3 4 10 12 17 15 14 17 19 24 18 3 8 14 14 24 33 31 22 13 10 8 9 9 7 5 3 7 11 10 12 15 13 13 12 14 15 11 8 8 11 13 14 13 10 8 6 4 5 4 4 6 9 9 9 8 8 10 13 14 13 15 22 28 31 33 36 37 37
35 35 35 39 40 40 42 38 36 42 45 46 50 52 50 47 39 25 9 2 5 9 11 15 14 14 17 20 27 22 8 12 14 13 24 31 28 20 12 11 12 11 10 8 7 5 9 14 12 12 13 11 11 13 14 15 11 4 2 5 8 9 8 7 6 6 5 5 8 9 7 8 12 10 7 9 13 14 14 13 12 17 25 30 33 36 36 38
35 35 36 39 40 40 42 38 36 41 45 46 50 52 50 48 36 15 4 3 4 5 10 16 14 14 18 19 24 24 16 10 9 15 26 26 25 18 7 10 13 12 13 10 7 4 4 12 16 14 11 9 11 13 11 12 9 3 6 4 2 2 1 1 3 4 3 5 10 11 8 7 14 12 6 9 13 15 14 12 12 17 23 26 30 34 36 38
35 36 37 38 39 40 41 40 38 38 43 47 48 53 53 43 24 7 4 5 2 5 11 15 14 17 21 16 14 19 17 9 6 17 25 22 24 19 7 7 7 7 9 9 9 7 5 7 9 8 8 8 10 11 12 12 9 6 6 4 3 4 3 3 2 0 1 6 11 14 12 10 14 14 8 9 12 12 11 11 11 16 22 25 26 30 34 37
35 35 36 37 39 39 39 40 38 37 45 48 48 55 46 23 8 4 7 5 4 7 10 10 12 17 21 15 10 15 16 9 8 14 16 13 16 14 7 5 2 1 4 4 6 8 9 7 2 2 10 11 7 8 11 11 9 7 4 5 4 1 1 2 1 1 4 8 9 13 16 14 15 14 7 8 13 14 13 13 10 11 18 26 28 29 32 34
34 34 36 37 39 39 39 40 39 39 47 51 54 50 27 7 2 3 5 7 5 8 10 12 14 17 20 18 12 13 13 10 10 11 10 8 9 10 8 7 6 5 6 5 6 7 8 9 6 4 10 14 9 4 5 6 7 6 4 6 4 2 1 3 4 4 6 9 8 11 14 13 16 17 11 11 14 13 14 17 15 14 18 25 30 31 33 34
34 34 35 37 39 39 38 38 37 38 48 56 52 33 11 5 7 4 5 6 5 9 12 14 16 16 18 16 11 13 12 10 11 9 8 9 8 9 10 9 9 7 5 7 9 7 6 9 11 7 5 12 11 5 5 6 7 9 8 8 8 6 5 7 7 6 8 10 11 12 10 7 9 12 13 18 21 18 20 23 25 26 25 26 28 28 29 30
34 34 35 36 38 38 35 35 36 40 50 56 40 16 7 8 7 6 7 5 5 11 12 12 15 14 14 14 11 12 10 8 11 11 8 9 7 7 9 10 11 6 2 5 7 8 8 8 10 11 6 10 13 10 9 8 9 11 10 8 9 7 5 7 7 7 8 7 8 9 7 5 6 8 9 13 21 26 30 31 30 29 27 24 23 24 25 26
32 33 33 35 37 37 34 34 40 48 54 45 21 8 9 7 5 7 7 5 6 11 12 14 16 13 12 11 10 13 11 7 11 11 8 9 8 7 8 10 12 9 4 5 5 6 11 8 8 15 14 14 14 13 11 8 6 8 6 6 8 9 7 5 5 5 3 4 3 4 4 3 5 13 9 8 13 17 26 31 32 33 32 28 26 25 26 27
29 30 30 33 36 37 36 35 40 56 58 33 8 6 8 4 6 9 8 8 9 13 16 14 12 10 10 8 9 14 13 8 10 10 8 9 8 9 9 7 12 13 8 7 4 4 9 7 8 15 15 15 18 16 13 10 5 4 6 7 6 6 5 3 5 4 2 6 5 3 7 2 4 12 10 13 15 9 12 20 25 32 37 35 34 31 30 31
25 27 27 29 33 36 37 36 42 57 53 24 6 8 6 2 6 9 8 9 13 16 16 11 8 9 9 8 9 14 13 9 11 9 7 9 9 10 11 8 12 16 13 10 5 3 4 5 7 14 12 15 22 20 15 14 10 3 5 9 3 3 2 1 4 5 5 9 6 7 12 5 3 8 6 11 14 9 10 12 15 23 28 30 32 34 35 35
21 24 25 26 31 36 36 36 46 55 39 14 8 8 4 3 7 9 9 10 16 17 12 8 8 7 9 9 8 13 13 9 10 10 8 7 6 11 14 10 11 17 19 16 8 2 4 2 4 13 13 12 17 15 10 15 18 8 3 7 6 2 3 5 3 5 7 8 6 10 16 9 7 9 7 8 11 10 11 12 12 16 19 24 30 34 35 36
21 20 20 25 31 34 36 41 51 47 21 7 10 7 2 4 8 15 17 13 13 13 10 8 8 6 8 10 9 12 13 11 11 9 7 7 6 12 17 12 10 16 21 19 9 2 4 4 4 9 12 10 9 9 8 10 15 8 2 5 6 3 5 7 5 5 7 8 7 10 13 7 8 13 15 14 14 11 10 11 12 13 17 24 28 31 35 37
22 13 10 25 32 32 39 47 45 29 9 6 8 6 5 6 9 18 24 17 8 7 8 8 10 8 7 9 9 10 11 11 11 8 6 8 7 8 15 14 10 13 19 19 12 5 2 3 5 4 8 9 6 8 12 12 11 9 6 8 8 5 2 4 7 6 6 7 7 9 11 6 6 11 15 17 18 14 11 11 11 13 20 26 29 34 37 38
22 7 6 25 33 38 46 38 21 9 5 5 2 4 8 6 7 17 24 20 6 3 5 9 10 8 7 9 9 9 9 8 10 8 5 10 10 6 12 18 13 12 15 14 12 9 5 3 6 5 4 7 7 9 14 14 12 11 10 10 10 8 4 4 7 6 5 7 6 7 11 6 3 5 10 13 15 14 14 14 11 14 22 28 33 39 39 38
19 2 8 28 36 46 44 19 5 5 4 5 4 6 9 6 8 15 18 17 7 2 4 7 8 7 6 7 8 9 9 7 10 9 6 10 12 7 12 22 20 13 11 10 10 12 8 3 6 7 5 6 7 6 5 6 6 9 11 12 11 9 7 7 8 7 6 8 7 7 10 7 3 5 6 6 8 9 14 14 11 17 26 31 37 41 38 36
14 1 12 32 41 49 35 7 3 6 1 5 8 6 7 4 7 13 13 11 6 2 3 5 7 8 5 5 6 8 10 8 10 11 8 9 10 9 14 23 24 14 8 7 7 8 5 2 4 7 6 6 6 4 4 4 1 4 9 11 11 11 11 11 10 8 7 9 7 7 11 10 6 7 8 8 9 10 14 16 14 17 24 32 35 34 32 31
12 8 19 36 47 48 25 4 6 6 3 8 9 6 6 1 3 11 11 9 6 5 6 5 7 7 5 4 5 6 7 7 9 11 8 6 9 14 17 20 21 14 8 9 9 9 7 4 6 7 6 6 6 6 7 4 2 2 6 9 12 14 15 12 9 7 8 10 10 9 10 9 6 8 10 11 11 12 11 14 18 19 21 26 27 27 27 27
9 8 18 37 54 48 19 4 9 8 8 12 10 10 9 2 0 5 6 5 4 5 6 5 8 9 6 5 5 3 4 3 5 8 7 4 6 11 15 19 19 13 11 16 18 15 8 5 7 9 9 10 9 7 8 7 5 3 4 9 14 16 18 13 8 8 9 11 12 11 10 9 7 10 13 14 15 14 9 4 8 12 14 15 16 18 20 20
5 2 7 19 34 32 12 5 10 7 8 12 10 9 11 7 4 4 5 3 2 5 6 6 9 10 7 7 5 4 4 1 3 3 4 4 3 3 6 10 13 12 13 18 19 13 4 5 10 12 12 13 10 5 3 4 6 6 9 13 15 17 20 15 9 10 11 10 12 12 11 11 13 15 16 12 13 15 10 3 1 4 8 10 11 12 14 15
3 1 1 3 8 10 4 5 7 5 8 11 8 8 13 10 7 7 6 3 4 7 5 4 10 10 9 12 7 4 4 2 2 2 1 2 1 2 4 3 1 5 7 10 15 9 1 4 11 15 17 17 15 10 5 3 6 8 10 14 14 16 19 16 13 14 12 9 12 14 13 14 18 21 19 14 10 9 8 6 5 7 9 10 10 12 14 14
2 0 1 2 2 4 5 8 9 7 11 10 5 7 13 13 12 10 7 5 7 9 4 4 10 12 13 15 9 5 6 3 3 5 3 2 0 3 3 3 1 2 4 3 10 6 1 4 8 11 15 18 17 16 12 6 5 7 7 9 11 14 17 17 17 17 16 13 13 14 14 17 21 23 20 14 11 9 8 10 11 12 16 17 15 15 16 15
3 2 2 2 1 2 5 13 16 12 13 11 6 8 13 15 15 10 6 7 8 9 7 7 10 12 13 13 9 7 9 7 6 6 4 3 3 1 1 2 2 2 2 4 3 1 1 5 7 8 11 15 16 16 16 16 13 11 11 10 9 10 13 14 13 14 16 16 15 15 15 16 19 20 15 12 15 17 15 16 17 17 20 22 20 18 17 15
3 3 4 3 2 4 6 10 13 11 11 10 7 8 11 14 15 10 6 10 10 9 10 9 10 12 13 13 11 9 12 10 5 4 5 4 3 3 2 1 1 3 4 4 2 0 1 4 6 6 7 12 14 15 15 17 17 18 18 16 14 14 14 13 11 10 12 11 11 13 15 15 17 17 12 12 17 19 15 15 18 19 20 21 19 17 16 15
6 7 9 5 2 5 6 6 8 8 9 9 7 9 11 14 15 10 6 8 8 9 10 9 10 10 8 11 13 10 10 10 5 7 11 10 7 6 5 4 3 4 3 2 3 4 4 3 3 4 6 10 12 13 15 16 16 19 20 19 17 15 15 15 13 11 11 10 10 11 11 12 16 16 12 12 16 16 14 15 16 16 16 16 15 16 15 13
7 9 11 6 2 5 7 6 7 7 7 8 8 9 10 12 14 11 6 6 5 7 11 11 10 8 7 10 13 9 11 12 8 7 11 12 12 12 12 11 8 5 4 3 3 4 4 3 2 4 6 10 12 12 12 12 13 13 14 17 18 17 17 17 14 11 12 10 9 10 10 10 12 12 11 13 15 15 15 17 17 15 14 14 14 16 16 16
Wind_Direction
255 253 252 247 244 243 239 238 242 245 245 244 243 242 241 241 241 243 242 238 235 238 240 236 233 233 233 233 236 239 243 243 238 235 233 231 231 232 235 237 235 233 236 239 233 233 249 257 252 230 217 224 229 226 222 228 223 217 217 224 243 244 240 243 254 274 285 163 146 155 182 213 160 170 203 198 194 213 187 179 180 163 182 205 194 202 208 195
255 253 253 250 246 243 239 236 237 240 242 241 242 240 239 240 240 240 242 238 233 236 238 236 234 231 232 232 233 238 244 246 246 241 234 230 229 230 231 234 234 232 232 231 214 218 237 237 232 218 212 222 224 213 213 212 209 216 222 221 234 244 252 260 272 282 294 353 114 151 168 246 198 163 182 198 196 206 202 193 192 177 183 205 204 212 231 232
254 253 252 251 249 244 241 238 235 236 238 237 238 239 238 238 239 238 240 239 234 235 236 235 235 232 230 229 230 237 243 253 257 244 234 229 228 225 227 230 230 230 230 222 204 216 244 233 222 217 215 223 224 205 201 203 202 211 220 241 235 237 257 263 272 283 299 336 327 218 140 205 223 149 166 210 212 202 206 207 195 191 194 204 209 215 231 232
253 253 252 251 250 247 242 239 235 232 234 235 234 235 237 237 238 238 238 238 231 228 227 228 231 231 228 225 225 231 240 265 260 247 237 231 228 224 225 226 225 225 226 224 211 212 236 229 220 233 232 222 222 221 216 205 201 208 210 231 246 248 260 256 268 290 291 271 280 303 113 200 237 157 172 205 232 212 211 215 209 205 200 205 212 215 225 229
252 251 251 250 249 249 244 239 235 231 230 231 230 230 233 234 236 237 238 236 226 221 221 222 224 227 226 221 220 219 216 262 267 255 245 237 231 225 224 224 222 221 221 222 216 210 222 227 221 244 253 227 207 226 236 220 210 223 227 228 242 252 266 264 273 317 341 360 251 268 185 228 220 178 195 208 229 233 235 241 220 212 203 207 215 215 219 225
250 250 249 250 248 249 247 240 236 232 230 229 228 228 229 230 231 232 233 229 224 222 220 221 221 224 223 217 215 206 195 210 349 322 243 238 234 226 222 223 221 218 219 218 216 215 219 224 216 226 253 244 212 214 233 228 217 226 245 238 244 251 259 272 282 337 354 346 300 264 256 246 221 192 210 220 234 243 285 326 243 201 198 209 215 215 215 219
249 248 247 248 247 247 247 242 237 235 234 229 224 224 226 228 228 229 227 224 222 221 219 220 221 220 219 213 211 208 213 224 232 49 341 236 233 228 222 221 220 215 216 213 210 218 218 216 212 208 229 248 236 225 224 233 241 241 238 240 248 254 256 261 269 259 241 268 272 283 294 262 232 214 221 222 233 242 258 279 276 230 213 214 210 211 215 219
246 246 245 245 245 245 245 243 240 237 234 228 222 220 222 225 225 226 225 222 221 220 218 218 218 217 212 205 207 215 227 224 212 156 349 318 213 221 221 218 219 215 214 214 209 212 212 209 210 210 217 227 244 251 229 231 256 256 243 247 253 257 260 258 261 260 231 227 259 276 281 259 247 256 256 243 240 242 247 260 266 257 242 216 210 214 216 219
245 244 243 242 243 243 242 242 240 236 231 226 224 220 217 221 223 223 223 221 220 218 216 214 214 213 206 203 206 226 234 226 216 218 310 329 206 207 216 215 214 213 211 212 206 204 206 208 208 209 214 209 229 276 265 214 259 279 283 282 280 271 267 266 267 268 257 244 254 259 249 243 250 260 263 251 247 247 246 254 261 255 238 218 216 224 225 226
245 243 242 241 241 241 240 240 240 237 231 227 226 220 214 217 220 221 222 220 219 218 215 212 209 206 202 201 200 231 238 232 225 221 225 331 219 206 212 213 211 209 210 210 203 202 206 209 207 208 215 201 204 239 237 188 323 336 312 293 292 290 276 268 265 257 248 242 241 244 246 245 245 245 243 239 241 244 243 243 246 246 237 224 221 226 231 231
244 243 241 240 240 239 238 238 239 237 233 229 227 219 211 213 216 219 220 217 218 217 215 211 205 203 200 201 203 228 240 235 229 228 227 229 231 218 210 210 211 208 208 209 204 204 205 213 212 206 211 197 195 230 245 246 295 330 323 308 288 290 282 266 263 254 241 233 236 237 255 255 242 233 228 226 234 241 237 236 231 229 230 227 221 223 229 231
243 241 240 240 239 238 236 235 235 236 233 228 226 219 210 210 213 215 218 216 215 215 213 210 205 203 200 206 215 222 229 229 224 224 225 226 231 238 218 206 210 210 209 208 209 208 205 213 213 200 195 178 165 213 256 249 253 279 317 329 297 289 277 261 260 254 232 210 230 233 258 251 228 235 238 229 236 245 245 242 231 223 224 226 221 219 224 230
241 239 239 239 237 236 235 232 232 234 233 229 226 220 210 208 210 212 214 214 211 211 210 207 205 204 202 218 225 224 216 199 226 218 206 218 225 234 235 213 205 208 212 209 212 213 209 215 213 200 195 181 162 143 197 223 221 247 290 309 302 295 268 253 254 254 239 215 219 215 253 246 213 233 240 233 233 239 243 241 231 224 224 225 222 218 221 228
239 238 237 237 237 235 233 231 229 231 232 229 226 221 210 205 208 209 211 210 206 206 206 204 205 202 209 230 234 230 223 215 238 240 202 202 213 223 235 225 208 202 205 207 208 208 208 212 209 203 195 176 165 159 129 97 149 190 290 265 276 273 262 254 242 241 239 222 211 207 245 252 229 236 240 235 227 225 232 235 228 225 225 222 221 219 220 227
237 237 235 236 237 234 232 229 227 228 229 228 225 220 209 204 206 206 207 206 202 200 200 202 202 199 217 239 241 233 227 226 235 237 196 195 207 213 219 226 223 209 203 205 204 204 208 204 199 197 181 156 159 158 148 122 137 133 182 234 232 244 262 275 254 238 236 217 200 203 245 245 239 246 247 249 238 225 226 232 229 226 227 224 221 219 220 225
237 236 234 235 235 233 231 228 226 225 225 225 223 218 210 205 204 204 204 201 198 194 193 199 199 197 217 243 243 232 223 225 228 220 185 189 202 209 214 221 226 222 213 207 207 213 213 199 191 190 171 154 164 166 157 169 183 171 206 230 216 231 254 267 261 248 251 241 196 200 232 232 239 253 249 251 247 231 223 231 232 227 229 230 224 220 221 223
237 235 233 234 234 232 229 227 225 223 222 221 221 217 208 204 204 201 199 195 192 189 191 198 197 198 225 240 235 226 218 221 222 215 196 190 195 202 209 214 216 223 222 209 205 204 191 179 173 176 173 169 178 173 176 194 209 198 199 229 223 227 243 250 254 243 247 259 223 206 231 246 260 275 269 265 262 242 217 227 236 228 229 232 227 221 221 222
237 236 234 233 232 230 227 226 222 220 220 217 217 213 204 202 203 197 191 187 182 182 190 193 186 192 235 235 227 218 217 219 215 213 208 198 198 197 197 207 210 208 203 191 188 183 172 167 166 165 171 185 190 182 197 207 209 202 195 216 224 225 234 242 256 259 255 259 239 212 227 239 234 253 264 267 272 267 233 231 242 238 234 234 230 224 223 223
238 237 234 231 231 228 226 224 219 218 217 214 214 210 203 198 197 193 188 182 175 172 186 185 182 183 238 229 223 214 212 218 211 212 211 206 208 207 197 200 198 188 177 166 180 179 170 162 168 186 188 190 196 195 205 211 203 201 205 215 220 225 230 227 239 257 28 283 253 231 241 249 238 236 245 251 257 259 251 242 238 240 243 243 239 235 231 228
238 235 232 230 229 228 226 222 218 217 214 210 207 205 198 187 186 188 184 185 185 183 188 188 189 192 62 260 218 204 191 205 206 204 209 210 209 214 212 196 185 183 179 174 177 177 177 177 184 197 199 196 196 198 209 217 211 213 219 223 224 231 234 218 216 199 147 207 261 259 270 272 261 253 248 249 248 245 245 240 233 232 235 242 244 244 243 237
236 233 231 228 227 226 225 220 218 217 213 208 202 200 194 179 172 172 175 187 198 191 190 192 194 197 205 14 213 198 188 181 195 197 203 208 206 210 212 195 182 182 191 185 163 169 183 199 203 199 203 201 198 200 209 217 220 225 226 226 228 230 238 230 216 167 148 189 252 259 275 276 273 277 266 259 253 242 240 239 239 234 228 235 240 239 243 243
234 232 229 227 224 223 223 220 218 217 212 206 199 199 195 183 183 181 172 180 205 198 196 196 199 204 216 353 115 183 181 168 186 192 191 197 201 202 196 194 195 185 189 188 159 164 193 213 208 201 204 204 200 201 206 217 224 229 228 232 237 223 228 238 223 199 160 194 250 248 261 265 264 269 269 267 263 256 249 244 245 241 230 229 233 234 236 239
233 231 227 225 222 220 222 219 218 217 210 205 199 198 197 186 184 183 173 165 199 199 201 195 197 208 215 223 140 171 176 168 178 185 184 187 194 200 196 195 205 196 190 191 181 180 197 213 210 204 199 200 202 197 201 218 225 229 228 232 241 225 222 232 210 202 201 226 256 255 260 263 256 253 255 260 264 267 262 253 248 244 236 230 228 228 231 235
232 229 225 224 221 219 220 217 218 217 209 203 201 201 197 187 182 178 172 162 183 196 203 199 197 209 215 217 177 172 187 187 181 183 186 185 187 198 205 207 210 208 202 198 197 202 211 213 209 204 196 200 206 199 200 213 222 225 225 228 239 233 232 238 218 209 218 236 253 264 273 264 245 243 244 248 258 264 262 259 252 244 241 243 236 228 228 231
231 227 224 222 219 217 217 217 218 217 210 202 201 201 194 187 184 177 170 164 168 187 198 202 208 215 213 215 202 180 195 204 194 189 189 188 185 187 202 208 208 215 211 204 203 211 220 203 193 197 194 197 205 208 203 204 219 228 222 226 237 236 233 237 239 238 242 246 224 210 267 270 235 232 237 231 241 250 250 251 249 241 239 244 243 235 231 231
228 226 223 220 218 214 214 217 218 217 210 202 200 197 190 184 179 174 172 192 199 172 180 191 203 209 202 205 198 182 201 221 202 195 191 192 190 183 192 201 204 220 211 205 210 217 217 200 189 194 193 194 204 212 204 197 215 230 211 211 227 236 236 232 228 224 237 256 214 168 238 270 252 224 228 223 229 238 239 241 243 242 240 240 240 239 237 235
227 223 221 218 216 211 209 214 216 212 205 200 199 195 190 182 171 169 173 308 219 162 159 178 187 195 192 186 178 176 213 191 189 204 194 191 193 191 200 197 195 221 207 194 216 200 192 202 202 193 191 195 205 210 200 193 206 227 207 196 209 222 228 229 230 233 245 271 268 216 233 272 269 241 231 240 248 245 240 239 238 238 239 238 238 239 240 239
225 222 219 216 214 211 209 209 210 207 202 200 197 192 188 179 170 172 179 252 195 151 147 173 180 183 180 168 168 182 203 159 166 207 197 192 193 191 209 209 200 213 200 191 214 187 181 201 205 197 198 200 205 209 200 193 206 227 161 179 201 212 221 224 229 240 253 259 259 243 227 265 271 252 221 230 247 252 249 247 244 239 236 235 235 238 240 241
222 219 217 214 214 213 211 208 207 208 204 199 195 188 181 175 172 178 212 215 183 150 150 162 172 172 166 163 170 187 204 176 160 185 187 193 195 190 213 220 212 216 204 203 221 204 193 211 207 204 208 203 204 209 200 199 209 145 93 121 149 75 83 201 223 243 254 243 247 241 217 244 270 261 216 213 233 241 246 247 248 249 245 239 233 233 237 241
219 217 215 213 213 212 212 210 209 206 200 197 191 178 170 171 175 179 208 205 147 158 157 153 165 164 159 166 176 185 197 201 159 163 173 186 193 193 207 217 225 234 208 208 224 234 268 246 218 210 214 209 211 204 194 205 201 129 115 150 100 63 57 48 46 29 283 243 241 240 222 223 263 263 225 218 235 236 241 240 235 240 246 249 241 235 236 239
216 215 213 212 212 210 210 209 207 200 196 192 177 164 161 164 179 188 184 172 115 147 150 148 164 161 161 172 178 182 192 196 160 159 170 177 183 191 201 198 204 280 223 215 225 238 254 253 249 216 205 202 217 209 198 205 179 133 149 166 132 93 29 25 40 173 239 242 235 234 224 217 246 258 226 220 234 230 236 239 231 223 231 241 244 242 242 241
215 213 212 212 211 209 209 207 204 196 191 183 166 158 155 147 190 213 167 146 147 166 159 161 168 167 172 177 173 177 189 192 173 169 174 168 174 189 196 189 171 182 214 208 204 220 233 227 212 199 193 194 204 196 199 202 157 156 169 142 151 194 191 223 220 212 234 241 230 220 215 212 240 255 249 243 238 225 232 237 233 230 226 232 238 242 245 243
212 211 212 213 208 206 208 205 202 196 184 172 161 154 150 166 179 176 158 160 169 170 162 162 169 170 172 176 177 176 184 194 182 174 174 170 178 195 202 202 189 193 207 196 199 205 221 220 205 199 184 197 205 179 183 192 165 184 185 164 184 195 210 225 222 228 235 239 232 217 212 215 245 255 237 238 244 235 236 235 232 236 236 232 232 237 243 243
210 210 211 211 206 205 207 202 198 192 176 162 154 150 160 176 167 145 168 189 157 154 153 151 157 162 170 180 181 170 178 204 190 177 171 172 185 198 202 208 205 210 208 193 201 200 221 227 195 194 180 178 200 206 195 179 174 197 194 187 200 192 211 223 215 226 235 249 235 208 208 196 217 242 220 229 242 232 231 234 234 236 234 230 231 233 239 245
213 214 211 209 205 203 204 201 192 182 170 156 147 161 166 164 157 150 172 187 158 150 147 148 152 157 173 186 183 176 181 196 190 186 179 178 193 196 193 201 200 199 192 199 200 191 223 240 177 189 190 173 192 210 193 163 177 208 189 189 212 205 215 240 235 221 220 285 252 188 228 198 235 267 260 256 256 231 225 229 231 236 236 237 245 243 239 241
210 212 212 208 203 199 200 201 188 174 165 156 144 176 166 168 174 166 175 178 161 145 141 148 156 159 170 180 186 188 187 182 179 190 194 188 198 198 195 194 188 191 192 196 202 180 215 236 177 186 198 187 191 198 188 174 171 193 193 202 212 203 204 245 265 251 248 269 253 224 264 283 303 280 253 243 255 237 218 221 222 231 233 235 242 242 237 235
201 206 210 206 203 199 196 198 184 168 162 159 164 172 171 197 167 164 172 158 149 146 143 148 160 165 169 177 191 186 182 182 177 182 193 191 199 197 197 199 184 191 198 195 217 214 199 244 194 181 197 198 193 194 199 204 199 178 196 200 167 56 94 194 262 255 246 258 250 243 257 241 232 270 229 221 236 218 214 220 215 222 222 223 228 229 230 233
197 201 205 207 206 197 191 192 180 166 160 164 174 163 162 176 156 162 174 156 150 153 148 148 162 172 169 171 189 180 173 178 176 179 189 186 196 190 191 202 189 192 199 195 211 230 159 258 220 180 190 194 187 192 208 217 214 207 163 177 161 109 191 191 230 233 229 249 249 245 251 232 211 251 255 237 233 216 215 219 216 218 214 214 219 222 228 232
191 191 199 203 199 192 189 185 173 164 161 176 178 166 146 167 167 173 178 167 152 155 155 151 151 161 167 167 178 175 174 180 174 177 188 182 194 188 187 199 194 191 195 190 198 215 161 224 244 183 182 178 174 193 206 212 213 205 145 171 178 191 205 195 202 220 227 240 246 249 252 225 207 240 251 251 245 232 218 213 215 217 210 211 218 224 229 230
183 180 202 196 189 188 184 174 165 163 170 177 177 169 150 162 174 178 180 175 151 148 162 154 145 147 158 167 173 172 175 182 177 180 189 180 186 190 188 195 196 189 189 187 194 199 156 214 232 193 175 176 178 196 201 201 197 192 198 204 198 193 204 201 201 208 224 231 235 250 254 228 195 226 235 240 243 239 229 219 212 213 211 212 220 227 229 231
175 179 200 185 184 181 173 163 157 165 176 168 158 139 155 167 167 175 184 182 159 66 133 144 149 149 148 162 174 174 172 181 186 188 190 183 188 198 189 192 197 186 180 185 194 193 186 198 211 216 190 192 204 201 204 206 195 193 204 207 207 200 184 210 216 206 218 236 231 246 260 255 204 231 232 234 241 238 232 226 209 205 207 211 224 233 234 234
170 206 184 177 180 173 162 149 151 175 175 169 139 144 167 178 165 170 184 183 167 54 105 133 147 146 144 161 169 167 164 179 196 192 194 196 196 198 186 189 198 194 177 186 198 191 190 189 208 230 232 218 222 212 227 243 217 214 214 206 210 207 190 209 224 207 207 234 237 249 265 264 255 284 285 270 268 255 242 234 206 200 206 213 227 234 234 233
170 174 171 177 179 170 159 141 161 159 154 138 128 147 171 166 161 167 176 179 167 131 118 129 142 142 150 166 160 162 162 173 200 197 190 199 201 201 192 188 193 196 180 183 193 182 173 159 213 241 256 253 262 283 306 322 330 245 231 214 211 208 204 214 221 217 218 225 224 240 256 254 248 271 285 294 302 291 261 237 205 197 206 214 224 229 228 228
166 158 163 175 179 172 163 156 157 146 140 136 122 146 169 74 157 169 174 177 166 149 145 137 133 134 150 152 137 163 170 166 198 206 197 190 190 194 198 193 189 190 188 183 174 166 171 172 190 221 246 247 252 254 251 242 158 215 239 230 225 216 214 224 229 234 238 228 222 230 248 251 239 238 249 264 283 297 278 231 206 200 205 211 218 219 219 219
145 166 166 169 173 174 171 172 166 154 149 147 138 152 159 133 200 179 170 158 148 149 141 126 123 123 130 124 99 155 192 147 172 204 214 204 176 184 198 201 194 190 196 188 170 163 178 185 183 206 223 222 222 228 235 227 202 194 213 229 236 224 215 217 221 227 231 226 225 230 241 254 256 248 247 248 252 264 285 270 206 200 195 198 204 206 208 210
135 189 175 161 165 170 172 159 165 160 148 150 146 155 162 156 156 164 149 125 129 144 128 120 127 118 126 143 124 158 199 87 102 177 219 208 170 155 184 199 200 204 209 190 165 153 176 197 193 208 222 225 227 225 221 201 186 192 202 211 223 227 221 216 212 220 225 225 229 231 237 253 260 255 251 245 238 242 256 301 281 204 182 177 189 204 209 207
168 195 166 135 145 152 136 129 152 158 159 157 149 159 166 157 148 160 168 178 161 143 115 120 146 145 158 163 153 165 174 106 96 155 183 189 173 37 43 42 210 228 229 186 160 146 141 203 202 213 222 230 235 231 216 154 164 197 214 211 210 218 223 222 219 221 219 223 236 231 225 240 251 250 247 247 251 254 253 249 242 239 231 217 211 214 212 212
171 183 121 201 170 139 145 162 166 160 163 166 147 149 160 157 158 167 173 176 169 157 131 148 172 173 167 161 157 159 151 132 209 201 173 169 296 12 10 360 345 338 9 126 161 156 141 208 214 222 228 235 239 236 236 229 196 195 207 213 211 213 220 225 226 226 221 223 237 232 219 229 244 249 247 244 251 261 258 250 248 248 247 246 237 222 217 225
117 86 99 168 163 92 135 160 164 162 165 170 163 160 167 167 168 169 155 152 172 183 174 171 181 175 165 165 162 159 166 176 201 199 158 142 172 167 264 281 255 241 83 114 167 261 259 215 222 228 242 248 244 241 240 240 241 237 226 222 221 222 229 232 235 241 242 242 248 250 243 239 244 252 253 248 251 254 251 247 248 244 236 232 226 221 225 235
152 134 132 131 78 70 98 141 158 163 168 174 178 176 174 174 173 170 162 164 171 186 189 179 173 167 164 170 173 180 188 181 159 147 143 142 165 172 190 231 221 201 172 134 119 282 202 222 224 223 250 256 249 247 243 238 243 246 241 235 230 232 240 239 235 244 256 262 264 265 267 262 258 262 261 251 253 258 258 249 242 233 223 218 219 228 241 245
167 165 155 144 102 118 118 135 157 160 170 180 181 174 176 182 178 163 163 185 181 182 184 167 157 165 169 179 190 195 182 170 150 144 159 176 191 176 174 187 173 174 188 162 130 138 165 219 230 220 244 252 244 242 244 243 243 246 246 243 237 236 240 240 236 227 226 239 254 260 261 258 261 269 273 264 257 257 259 253 242 230 218 215 221 230 240 245
143 160 168 165 130 146 146 146 158 167 180 184 175 170 178 180 171 156 153 190 199 186 177 161 149 159 182 199 202 186 157 168 188 174 171 191 197 188 188 194 192 187 180 159 140 149 167 196 234 222 239 255 246 236 241 247 246 242 237 234 233 234 234 240 245 233 215 213 228 241 244 251 266 281 288 275 259 248 249 251 250 247 235 227 230 235 243 254